Temperature
14 15 15 15 15 15 14 14 14 14 14 14 14 14 14 14 14 14 14 14 14 14 14 14 14 14 14 14 14 14 14 14 14 14 14 14 14 14 14 14 14 14 14
15 15 15 15 15 14 14 14 14 14 14 14 14 14 14 14 14 14 13 14 14 14 14 14 14 14 14 14 14 14 14 14 14 14 14 14 13 13 14 14 14 14 14
14 15 14 14 14 14 14 14 14 14 14 14 14 14 14 13 13 13 13 13 13 13 13 14 14 14 14 14 14 14 14 14 14 13 13 13 13 13 13 13 13 13 13
14 14 14 14 14 14 14 14 14 13 13 13 13 13 13 13 13 13 13 13 13 13 13 13 13 13 13 14 14 14 14 13 13 13 13 13 13 13 13 13 13 13 13
14 14 14 14 14 13 13 13 13 13 13 13 13 13 13 13 13 13 13 13 13 13 13 13 13 13 13 13 13 13 13 13 13 13 13 13 13 13 13 13 13 13 13
13 13 14 14 14 13 13 13 13 13 13 13 13 13 13 13 13 13 13 13 13 13 13 13 13 13 13 13 13 13 13 13 13 13 13 13 13 13 13 13 13 13 12
13 13 13 13 13 13 13 13 13 13 13 13 13 12 12 13 13 13 13 13 13 13 13 13 13 13 13 13 13 13 13 13 12 12 12 12 12 12 12 12 12 12 12
13 13 13 13 13 13 12 13 13 12 12 12 12 12 12 12 13 13 12 13 13 13 13 13 13 13 13 13 13 13 13 12 12 12 12 12 12 12 12 12 12 12 12
12 12 12 12 12 12 12 12 12 12 12 12 12 12 12 12 12 12 12 12 12 12 12 13 13 13 13 13 13 13 12 12 12 12 12 12 12 12 12 12 12 12 11
12 12 12 12 12 12 12 12 12 12 12 12 12 12 12 12 12 12 12 12 12 12 12 12 12 12 12 12 12 12 12 12 12 12 12 12 12 12 11 11 11 11 11
12 12 11 12 12 12 12 11 11 12 12 12 12 11 11 11 11 11 11 12 12 12 12 12 12 12 12 12 12 12 12 12 11 11 11 11 11 11 11 11 11 11 11
11 11 11 11 11 11 11 11 11 11 11 11 11 11 11 11 11 11 11 11 11 11 11 11 11 11 11 11 11 11 11 11 11 11 11 11 11 11 11 11 11 10 10
11 11 11 11 11 11 11 11 11 11 11 11 11 11 11 11 11 11 11 11 11 11 11 11 11 11 11 11 11 11 11 11 10 10 11 11 11 11 10 10 10 10 10
11 11 11 11 11 11 10 10 10 10 10 11 10 10 10 10 10 10 10 10 10 10 10 10 10 10 10 10 10 10 10 10 10 10 10 10 10 10 10 10 10 10 10
11 11 10 10 10 10 10 10 10 10 10 10 10 10 10 10 10 10 10 10 10 10 10 10 10 10 10 10 10 10 10 10 10 10 10 10 10 10 10 10 10 9 9
10 10 10 10 10 10 10 10 10 10 10 10 10 10 10 9 9 9 9 9 9 10 10 10 9 9 9 9 9 9 9 9 9 9 9 10 10 10 10 9 9 9 9
10 10 10 10 10 10 10 10 9 9 9 9 9 9 9 9 9 9 9 9 9 9 9 9 9 9 9 9 9 9 9 9 9 9 9 9 9 9 9 9 9 9 9
10 9 10 10 10 10 10 9 9 9 9 9 9 9 9 9 9 9 9 9 9 9 9 9 8 8 8 8 9 9 9 9 9 9 9 9 9 9 9 9 9 9 9
9 9 9 10 10 9 9 9 9 9 8 8 8 8 8 8 8 8 8 8 8 8 8 8 8 8 8 8 8 8 8 8 8 8 8 8 8 9 9 9 9 9 8
9 9 9 9 9 9 9 9 9 8 8 8 8 8 8 8 8 8 8 8 8 8 8 8 8 8 8 8 8 8 8 8 8 8 8 8 8 8 8 8 8 8 8
9 9 9 9 9 9 8 8 8 8 8 8 8 8 8 8 8 8 7 7 7 7 7 7 7 7 7 7 7 7 7 8 7 7 7 8 8 8 8 8 8 8 8
9 9 9 9 8 8 8 8 8 8 8 7 7 7 7 7 7 7 7 7 7 7 7 7 7 7 7 6 6 6 6 7 7 7 7 7 7 7 7 7 7 7 7
8 8 8 8 8 8 8 8 7 7 7 7 7 7 7 7 7 7 7 7 6 6 6 6 6 6 6 6 6 6 6 5 6 6 6 6 6 6 7 7 7 6 6
8 8 8 8 8 8 8 7 7 7 7 7 7 7 7 7 7 6 6 6 6 6 6 6 6 6 6 5 5 5 5 5 5 5 5 6 6 6 6 6 6 6 6
8 7 7 7 7 7 7 7 7 7 6 6 6 6 6 6 6 6 6 6 6 6 6 5 5 5 5 5 5 5 5 5 5 4 4 5 5 5 5 5 5 5 5
7 7 7 7 6 7 7 7 6 6 6 6 6 6 6 6 6 6 5 5 5 5 5 5 5 5 5 5 4 4 4 4 4 4 4 4 4 4 5 5 5 4 4
Wind_Speed
6 9 12 11 10 11 10 10 9 9 9 9 10 10 10 10 10 10 10 10 10 10 10 9 10 10 10 11 12 12 12 11 11 11 11 11 11 11 11 11 11 11 11
8 11 12 11 10 10 10 10 10 10 9 9 9 9 9 9 9 9 10 10 10 10 10 9 9 9 10 10 10 10 10 9 8 8 9 9 9 10 11 11 11 10 11
9 12 12 11 10 10 10 10 9 9 9 9 9 8 8 8 8 9 9 9 9 9 9 9 9 8 9 9 9 8 8 7 7 6 5 7 8 9 10 10 10 9 9
10 12 11 11 10 10 9 9 9 9 9 8 8 8 8 8 8 8 8 8 8 9 9 9 9 8 8 8 7 7 6 6 5 5 5 6 7 8 8 9 9 9 9
9 11 11 11 10 10 9 9 8 8 8 8 8 8 7 7 7 7 7 7 7 8 8 8 8 7 7 6 6 6 5 5 5 5 5 8 8 7 7 8 8 8 8
8 11 12 11 10 10 9 8 8 8 8 8 8 7 7 7 6 6 6 6 6 6 6 6 7 6 6 5 5 5 5 5 5 5 6 7 7 6 7 7 8 8 8
8 10 11 11 10 9 9 8 8 8 7 7 7 7 7 7 6 6 6 6 6 5 6 6 6 6 5 5 4 4 4 4 4 5 6 7 6 6 6 6 6 7 7
8 9 10 9 9 9 9 8 8 8 8 8 8 7 6 6 6 5 5 6 6 6 6 5 5 5 5 4 3 4 4 5 3 4 5 6 6 5 5 5 5 6 6
8 8 7 8 8 8 8 9 8 7 7 7 7 6 6 5 4 4 4 5 5 5 4 4 4 4 4 3 3 3 4 4 4 4 4 5 5 4 4 4 4 4 5
6 6 6 6 7 7 7 8 8 7 7 7 7 6 5 4 4 3 3 3 3 3 3 3 2 2 2 2 2 3 4 4 3 3 3 4 4 3 3 3 3 3 4
5 5 5 4 5 5 6 7 7 7 7 6 6 4 3 3 3 3 3 2 2 3 2 2 2 1 1 1 2 2 3 2 1 2 3 3 3 2 2 2 3 3 3
5 4 4 4 4 4 4 5 5 5 5 5 5 4 2 2 2 3 3 2 2 2 2 1 1 1 1 1 1 2 2 2 1 2 3 2 1 1 1 2 2 3 3
4 4 4 4 4 4 2 3 3 3 3 3 3 3 4 3 2 2 2 2 2 1 1 0 1 1 1 1 1 1 2 2 1 2 2 1 0 1 2 2 2 2 3
4 4 4 4 3 3 3 2 2 2 2 2 2 2 3 2 1 1 1 1 1 1 1 0 0 0 1 1 1 0 1 2 1 2 2 1 1 2 2 3 2 3 3
4 4 4 4 3 2 2 1 2 2 2 2 2 2 2 2 1 1 1 1 1 0 1 0 0 1 1 1 1 1 1 1 0 1 2 1 1 2 3 3 4 3 4
4 4 3 4 4 3 2 1 1 2 2 2 2 2 1 2 2 1 1 1 1 1 1 1 1 0 1 1 1 1 1 1 1 1 2 1 1 2 3 4 4 4 4
4 4 4 4 4 4 3 2 2 2 2 2 2 2 1 2 1 1 1 0 1 1 1 1 1 1 1 1 1 1 1 1 1 1 1 2 2 3 3 4 4 5 5
4 4 4 3 4 4 4 2 2 2 3 2 2 2 2 1 1 1 1 1 1 0 0 0 0 1 1 1 1 1 1 1 2 1 1 1 1 2 2 4 5 5 5
4 4 4 3 3 3 3 2 2 2 2 3 2 2 2 1 0 1 1 1 0 0 0 0 1 1 1 1 1 1 1 2 2 2 1 1 0 0 0 3 4 4 4
4 4 4 4 3 3 3 2 2 2 2 2 2 2 2 1 0 1 1 1 1 0 1 0 1 1 1 1 2 2 2 3 2 2 2 1 1 1 1 1 1 3 4
5 5 5 4 4 3 3 3 3 2 2 1 1 3 3 2 1 1 1 1 1 1 1 1 1 0 1 1 1 2 3 3 2 2 2 1 2 2 1 1 0 1 2
5 4 5 5 4 4 3 3 2 2 2 2 1 2 3 3 2 2 1 1 1 1 1 1 1 1 1 1 0 1 2 2 2 2 2 2 2 1 1 2 1 1 1
4 5 4 5 4 4 4 2 2 2 1 1 1 1 1 2 3 2 1 1 1 2 2 2 1 2 2 1 1 1 1 2 2 2 2 2 2 2 2 2 2 2 2
5 4 4 5 4 4 4 4 4 3 2 3 2 2 2 2 2 2 2 2 1 1 2 2 1 1 1 2 1 1 1 1 1 2 2 2 2 2 2 2 2 3 2
4 4 4 4 4 4 4 4 4 3 3 2 2 2 2 2 2 2 2 2 2 2 2 2 1 2 2 2 2 2 2 2 2 2 3 3 3 2 2 2 2 2 3
4 4 3 4 4 4 4 4 4 4 3 3 2 3 2 1 1 2 2 2 2 2 2 2 3 3 3 3 2 2 2 2 2 2 3 3 3 3 3 2 2 2 3
Wind_Direction
115 125 132 127 121 120 115 109 103 101 99 95 92 87 83 81 80 78 77 77 74 74 76 77 77 75 72 70 68 66 64 63 66 67 67 66 65 62 58 54 58 57 59
124 127 132 128 124 123 118 112 106 103 101 98 93 90 86 83 83 80 78 76 74 70 71 75 78 79 76 72 67 64 63 59 63 66 69 67 66 63 58 55 58 56 58
120 124 128 126 127 125 122 116 109 107 104 100 96 92 88 84 83 80 77 77 72 69 68 68 72 77 76 74 69 64 59 56 52 49 57 73 70 64 60 58 57 55 55
119 123 127 126 128 127 125 122 117 113 109 103 101 97 91 87 84 81 78 77 75 73 70 67 66 68 72 73 70 64 56 47 34 24 38 75 71 64 61 60 56 55 54
114 118 123 126 125 125 125 127 125 121 113 106 102 100 95 90 86 81 76 77 78 75 73 69 65 64 69 69 66 62 50 32 13 19 41 69 70 66 61 60 57 56 54
113 115 126 127 126 124 123 123 131 126 119 112 105 102 95 90 84 80 77 78 79 75 72 71 68 63 63 66 60 49 33 15 14 18 46 72 75 71 69 65 62 56 54
111 112 127 131 130 128 125 118 124 128 127 119 110 105 97 91 83 77 79 78 82 79 74 73 68 62 59 60 53 34 15 8 21 31 53 71 76 72 69 67 62 54 49
104 109 118 128 132 132 130 124 123 126 124 119 111 104 97 92 87 81 82 82 84 82 78 73 66 60 57 49 39 22 8 357 20 31 57 78 82 72 65 65 60 54 48
102 108 112 117 121 126 128 127 119 119 120 115 112 106 100 98 93 86 88 93 91 86 81 73 64 56 51 44 28 11 0 359 10 26 50 76 83 71 62 63 57 50 45
106 109 112 112 116 117 120 121 122 121 118 113 111 111 109 109 104 97 94 100 98 93 86 79 72 59 46 30 7 352 343 345 11 33 50 81 88 66 47 48 47 45 40
114 114 117 120 119 121 128 127 125 128 128 125 124 126 128 118 107 101 102 103 116 107 96 87 73 53 25 1 333 323 326 343 17 49 54 90 90 58 30 20 19 13 15
135 131 121 113 111 112 127 128 132 130 139 144 143 143 132 94 104 115 118 126 133 132 118 109 72 11 3 0 311 325 337 325 344 76 73 89 84 41 6 356 350 350 342
146 134 126 121 112 106 99 119 123 123 131 125 125 124 124 119 120 119 121 127 135 148 122 248 256 320 357 9 8 2 341 334 26 86 92 124 168 286 304 309 319 329 330
141 139 133 124 119 124 117 114 120 113 118 114 105 115 128 121 102 92 106 124 127 118 78 60 280 346 354 330 323 24 339 335 43 95 100 121 215 258 278 288 293 305 307
147 147 150 142 136 126 125 138 128 125 123 116 100 97 93 109 111 76 73 53 51 73 69 309 332 18 341 306 310 6 331 318 33 124 126 164 260 271 277 290 286 291 298
161 155 155 154 143 134 135 145 145 126 124 116 110 104 95 91 104 91 63 55 5 27 18 347 335 324 298 317 305 341 336 320 296 153 145 177 239 265 271 282 286 285 290
167 159 162 167 152 151 161 174 148 130 127 125 126 125 109 92 102 107 107 62 321 338 22 354 346 347 303 296 291 317 337 323 308 294 158 167 208 247 263 281 290 288 290
164 162 166 173 165 169 164 167 156 147 142 140 137 132 126 109 130 127 137 198 290 359 47 266 262 302 305 297 296 282 273 296 286 272 220 190 203 220 243 271 281 281 289
169 164 164 170 168 170 161 161 158 147 147 139 132 129 133 143 141 147 171 186 226 50 285 262 314 285 282 301 303 299 282 260 270 277 256 220 206 178 242 265 267 271 282
167 162 168 171 169 161 152 154 149 146 145 129 130 137 145 151 161 139 153 166 167 190 230 227 279 321 306 305 308 305 290 268 259 253 253 238 214 238 261 265 237 268 272
163 165 172 168 167 157 162 168 169 178 172 153 151 156 165 164 185 167 152 175 177 200 217 207 210 276 318 316 327 307 289 265 243 237 235 238 238 221 218 244 232 262 277
165 169 172 166 171 173 174 176 178 170 179 170 155 166 177 174 180 190 168 195 192 188 227 226 203 213 271 281 257 310 307 301 286 249 233 235 240 220 226 239 238 277 290
167 171 177 173 174 174 165 162 156 138 128 139 161 176 191 184 180 190 196 180 187 186 213 225 204 204 223 251 236 177 217 247 303 274 241 237 240 241 232 222 223 257 269
171 168 174 173 173 171 164 169 168 174 188 200 188 185 177 175 181 193 201 189 187 202 211 223 213 228 200 227 252 242 233 242 250 293 283 255 252 254 255 254 241 241 237
157 161 167 168 173 171 174 178 182 189 195 178 161 165 178 175 178 191 198 194 203 210 206 205 216 232 220 217 223 242 253 270 253 241 275 285 287 266 262 256 241 237 232
152 157 165 169 175 174 178 183 188 191 184 169 174 185 186 181 190 198 202 206 219 219 213 208 207 219 228 229 225 223 223 231 244 240 258 277 281 277 271 263 245 240 250
Height
1502 1502 1504 1505 1507 1508 1509 1511 1512 1513 1514 1515 1516 1517 1518 1518 1519 1520 1521 1522 1522 1523 1523 1524 1524 1524 1525 1525 1525 1526 1526 1526 1527 1527 1527 1527 1527 1527 1527 1527 1528 1528 1528
1501 1502 1504 1505 1507 1508 1510 1511 1512 1513 1514 1515 1516 1517 1518 1519 1520 1521 1521 1522 1523 1523 1524 1524 1524 1525 1525 1525 1526 1526 1526 1527 1527 1527 1527 1528 1528 1528 1528 1528 1528 1528 1529
1501 1502 1503 1505 1507 1508 1509 1511 1512 1513 1514 1516 1516 1517 1518 1519 1520 1521 1521 1522 1523 1523 1524 1524 1524 1525 1525 1526 1526 1526 1527 1527 1528 1528 1528 1528 1528 1528 1528 1528 1529 1529 1529
1501 1501 1503 1505 1507 1508 1509 1511 1512 1513 1514 1515 1516 1517 1518 1519 1520 1521 1521 1522 1523 1523 1524 1524 1525 1525 1525 1526 1526 1527 1527 1528 1528 1528 1528 1529 1529 1529 1529 1529 1529 1529 1529
1501 1501 1503 1505 1506 1508 1509 1510 1512 1513 1514 1515 1516 1517 1518 1519 1520 1520 1521 1522 1522 1523 1523 1524 1524 1525 1525 1525 1526 1526 1527 1528 1528 1528 1528 1529 1529 1529 1529 1529 1529 1529 1529
1501 1501 1503 1505 1506 1508 1509 1510 1512 1513 1514 1515 1516 1517 1518 1518 1519 1520 1520 1521 1522 1522 1523 1523 1524 1524 1524 1525 1525 1526 1527 1527 1528 1528 1528 1528 1528 1529 1529 1529 1529 1529 1529
1501 1501 1503 1504 1506 1507 1509 1510 1511 1513 1514 1515 1516 1516 1517 1518 1518 1519 1520 1520 1521 1521 1522 1522 1523 1523 1523 1524 1525 1525 1526 1527 1527 1527 1528 1528 1528 1528 1528 1528 1528 1528 1528
1500 1501 1502 1504 1505 1507 1508 1509 1510 1512 1513 1514 1515 1516 1516 1517 1518 1518 1519 1519 1520 1520 1521 1522 1522 1522 1523 1523 1524 1524 1525 1525 1526 1526 1527 1527 1527 1527 1527 1527 1528 1527 1527
1500 1501 1502 1503 1504 1506 1508 1509 1510 1511 1512 1513 1514 1515 1515 1516 1517 1517 1518 1519 1519 1520 1520 1520 1521 1521 1522 1522 1523 1523 1524 1524 1525 1525 1525 1526 1526 1527 1527 1527 1527 1527 1527
1500 1500 1501 1502 1504 1505 1507 1508 1509 1510 1511 1512 1513 1513 1514 1515 1516 1516 1517 1518 1518 1518 1519 1519 1520 1520 1521 1521 1522 1522 1523 1523 1523 1524 1524 1524 1525 1525 1525 1525 1525 1525 1525
1499 1500 1501 1501 1502 1504 1505 1507 1508 1509 1510 1510 1511 1512 1513 1514 1514 1515 1516 1516 1517 1517 1518 1518 1518 1519 1519 1520 1520 1521 1521 1521 1522 1522 1522 1523 1523 1523 1524 1524 1524 1524 1524
1497 1498 1499 1500 1501 1502 1504 1505 1506 1507 1508 1509 1510 1511 1511 1512 1513 1514 1514 1515 1515 1516 1516 1517 1517 1517 1518 1518 1519 1519 1519 1520 1520 1520 1521 1521 1521 1522 1522 1522 1522 1522 1522
1496 1497 1497 1499 1499 1501 1502 1503 1504 1506 1507 1508 1508 1509 1510 1510 1511 1512 1512 1513 1514 1514 1514 1515 1515 1516 1516 1516 1517 1517 1518 1518 1518 1518 1519 1519 1519 1520 1520 1520 1520 1520 1520
1493 1494 1495 1497 1498 1499 1500 1501 1502 1504 1505 1506 1507 1508 1508 1509 1509 1510 1511 1511 1512 1512 1512 1513 1513 1514 1514 1515 1515 1515 1516 1516 1516 1517 1517 1517 1517 1518 1518 1518 1518 1518 1518
1491 1492 1493 1495 1495 1497 1498 1499 1500 1501 1502 1503 1505 1505 1506 1507 1507 1508 1509 1509 1510 1510 1510 1511 1511 1512 1512 1513 1513 1513 1514 1514 1514 1514 1515 1515 1515 1515 1515 1515 1516 1516 1516
1489 1490 1491 1492 1493 1494 1496 1497 1498 1499 1500 1501 1502 1503 1504 1504 1505 1506 1506 1507 1508 1508 1509 1509 1509 1510 1510 1511 1511 1511 1511 1511 1512 1512 1512 1512 1513 1513 1513 1513 1513 1513 1513
1486 1487 1488 1490 1491 1492 1493 1494 1496 1497 1498 1499 1500 1501 1502 1502 1503 1503 1504 1505 1506 1506 1506 1507 1507 1508 1508 1508 1508 1509 1509 1509 1509 1509 1509 1510 1510 1510 1510 1510 1510 1510 1510
1483 1484 1486 1487 1488 1489 1491 1492 1493 1494 1495 1496 1497 1498 1499 1500 1500 1501 1501 1502 1503 1504 1504 1504 1505 1505 1505 1506 1506 1506 1507 1507 1507 1507 1507 1507 1507 1507 1507 1507 1507 1507 1507
1480 1481 1483 1484 1485 1487 1488 1489 1490 1492 1493 1494 1494 1495 1496 1497 1498 1498 1499 1500 1500 1501 1501 1502 1502 1503 1503 1503 1503 1503 1504 1504 1504 1504 1504 1504 1504 1504 1504 1504 1504 1504 1504
1477 1478 1479 1481 1482 1484 1485 1486 1487 1489 1490 1491 1492 1492 1493 1494 1495 1496 1496 1497 1498 1498 1499 1499 1500 1500 1500 1500 1500 1500 1501 1501 1501 1501 1501 1501 1501 1501 1501 1501 1501 1501 1501
1474 1475 1476 1477 1479 1480 1481 1482 1483 1485 1486 1487 1489 1490 1491 1491 1492 1493 1493 1494 1494 1495 1496 1496 1497 1497 1497 1498 1498 1497 1497 1497 1497 1498 1498 1498 1498 1498 1498 1497 1497 1497 1497
1470 1471 1472 1474 1475 1476 1478 1479 1481 1482 1483 1484 1486 1486 1487 1488 1489 1490 1490 1491 1491 1492 1492 1493 1494 1494 1494 1495 1495 1495 1494 1494 1493 1494 1494 1494 1494 1494 1494 1494 1494 1494 1493
1466 1467 1469 1470 1472 1473 1475 1477 1478 1479 1480 1481 1482 1483 1484 1485 1486 1486 1487 1487 1488 1488 1489 1489 1490 1491 1491 1492 1493 1494 1493 1491 1490 1490 1491 1491 1491 1491 1490 1490 1490 1490 1489
1463 1464 1466 1467 1469 1470 1472 1473 1474 1474 1475 1477 1478 1479 1480 1481 1482 1483 1483 1484 1484 1485 1486 1486 1487 1487 1488 1488 1489 1490 1491 1490 1489 1487 1487 1487 1487 1487 1487 1486 1486 1486 1485
1460 1461 1463 1464 1465 1467 1468 1470 1471 1472 1473 1474 1475 1476 1477 1478 1479 1479 1480 1480 1481 1481 1482 1483 1483 1484 1484 1485 1485 1486 1486 1487 1486 1486 1484 1483 1483 1483 1483 1482 1481 1482 1481
1457 1458 1460 1461 1462 1464 1465 1466 1468 1469 1470 1471 1471 1472 1473 1474 1475 1476 1476 1477 1477 1478 1478 1479 1479 1480 1480 1481 1481 1482 1482 1483 1482 1482 1481 1480 1479 1479 1478 1478 1477 1477 1477